Weather History for KCAR - August, 2013

Change the Weather History Date:

Friday, August 23, 2013

  Actual Average Record
Temperature  
Mean Temperature 58 °F 62 °F  
Max Temperature 69 °F 73 °F 89 °F (1947)
Min Temperature 47 °F 52 °F 38 °F (1957)
Degree Days  
Heating Degree Days 7 4  
Month to date heating degree days 59 58  
Since 1 June heating degree days 265 281  
Since 1 July heating degree days 87 116  
Cooling Degree Days 0 1  
Month to date cooling degree days 24 43  
Year to date cooling degree days 174 159  
Since 1 June cooling degree days 166 154  
Growing Degree Days 10 (Base 50)    
Moisture  
Dew Point 52 °F    
Average Humidity 71    
Maximum Humidity 97    
Minimum Humidity 44    
Precipitation  
Precipitation 0.18 in 0.11 in 1.66 in (1972)
Month to date precipitation 5.42 2.84  
Year to date precipitation 32.77 23.82  
Snow  
Snow 0.00 in 0.00 in 0.00 in (2002)
Month to date snowfall 0.0 0.0  
Since 1 June snowfall 0.0 0.0  
Since 1 July snowfall 0.0 0.0  
Snow Depth 0.00 in    
Sea Level Pressure  
Sea Level Pressure 29.91 in    
Wind  
Wind Speed 8 mph (NW)    
Max Wind Speed 16 mph    
Max Gust Speed 24 mph    
Visibility 8 miles    
Events Rain    
T = Trace of Precipitation, MM = Missing Value Source: NWS Daily Summary

Daily Weather History Graph

Daily Weather History Graph

Search for Another Location

Airport or City:

Trip Planner

Search our weather history database for the weather conditions in past years. The results will help you decide how hot, cold, wet, or windy it might be!

Date:

Astronomy

Aug. 23, 2013 Rise Set
Actual Time 5:40 AM EDT 7:28 PM EDT
Civil Twilight 5:07 AM EDT 8:00 PM EDT
Nautical Twilight 4:28 AM EDT 8:39 PM EDT
Astronomical Twilight 3:44 AM EDT 9:22 PM EDT
Moon 8:28 PM EDT (8/23) 8:46 AM EDT (8/23)
Length of Visible Light 14h 52m
Length of Day
13h 47m
Waning Gibbous, 91% of the Moon is Illuminated
Aug 23
Waning Gibbous
Aug 28
Last Quarter
Sep 5
New
Sep 12
First Quarter
Sep 19
Full

Hourly Weather History & Observations

Time (EDT) Temp. Dew Point Humidity Pressure Visibility Wind Dir Wind Speed Gust Speed Precip Events Conditions
12:50 AM 60.8 °F 59.0 °F 94% 29.76 in 4.0 mi Calm Calm - 0.04 in Rain Rain
12:54 AM 60.1 °F 59.0 °F 96% 29.77 in 4.0 mi Calm Calm - 0.05 in Rain Light Rain
1:54 AM 60.1 °F 59.0 °F 96% 29.77 in 3.0 mi West 3.5 mph - 0.07 in Rain Rain
2:04 AM 60.8 °F 59.0 °F 94% 29.77 in 2.5 mi West 3.5 mph - 0.03 in Rain Rain
2:11 AM 60.8 °F 59.0 °F 94% 29.77 in 3.0 mi West 3.5 mph - 0.04 in Rain Rain
2:18 AM 60.8 °F 59.0 °F 94% 29.78 in 2.5 mi WNW 5.8 mph - 0.06 in Rain Rain
2:26 AM 60.8 °F 57.2 °F 88% 29.79 in 3.0 mi WSW 3.5 mph - 0.09 in Rain Light Rain
2:38 AM 60.8 °F 59.0 °F 94% 29.78 in 5.0 mi Calm Calm - 0.10 in Rain Light Rain
2:54 AM 60.1 °F 59.0 °F 96% 29.79 in 8.0 mi Calm Calm - 0.10 in Rain Light Rain
3:16 AM 60.8 °F 59.0 °F 94% 29.78 in 5.0 mi Variable 4.6 mph - 0.01 in Rain Light Rain
3:33 AM 60.8 °F 57.2 °F 88% 29.77 in 10.0 mi North 9.2 mph - 0.01 in Rain Light Rain
3:54 AM 60.1 °F 57.0 °F 90% 29.75 in 10.0 mi NE 5.8 mph - 0.01 in   Overcast
4:54 AM 59.0 °F 57.0 °F 93% 29.79 in 10.0 mi WNW 4.6 mph - N/A   Overcast
5:54 AM 57.9 °F 54.0 °F 87% 29.83 in 10.0 mi NNW 10.4 mph 16.1 mph N/A   Overcast
7:54 AM 57.9 °F 53.1 °F 84% 29.88 in 10.0 mi NNW 13.8 mph 19.6 mph N/A   Clear
8:54 AM 60.1 °F 53.1 °F 78% 29.90 in 10.0 mi NNW 11.5 mph 18.4 mph N/A   Partly Cloudy
9:54 AM 62.1 °F 52.0 °F 70% 29.92 in 10.0 mi North 13.8 mph - N/A   Partly Cloudy
10:03 AM 62.6 °F 53.6 °F 72% 29.92 in 10.0 mi North 12.7 mph 19.6 mph N/A   Partly Cloudy
10:54 AM 62.1 °F 51.1 °F 67% 29.95 in 10.0 mi NNW 8.1 mph - N/A   Scattered Clouds
11:54 AM 64.9 °F 48.9 °F 56% 29.95 in 10.0 mi NNW 11.5 mph - N/A   Mostly Cloudy
12:54 PM 66.0 °F 50.0 °F 56% 29.96 in 10.0 mi NW 12.7 mph 18.4 mph N/A   Mostly Cloudy
1:54 PM 66.9 °F 48.9 °F 52% 29.97 in 10.0 mi NW 15.0 mph 19.6 mph N/A   Scattered Clouds
2:54 PM 64.0 °F 46.9 °F 54% 29.98 in 10.0 mi NNW 11.5 mph 18.4 mph N/A   Mostly Cloudy
3:54 PM 66.9 °F 46.0 °F 47% 29.99 in 10.0 mi NW 13.8 mph 20.7 mph N/A   Scattered Clouds
4:54 PM 66.0 °F 44.1 °F 45% 30.00 in 10.0 mi NNW 15.0 mph 21.9 mph N/A   Partly Cloudy
5:54 PM 64.0 °F 42.1 °F 45% 30.02 in 10.0 mi NNW 10.4 mph 20.7 mph N/A   Clear
6:54 PM 61.0 °F 43.0 °F 52% 30.05 in 10.0 mi NNW 6.9 mph - N/A   Clear
7:54 PM 55.9 °F 45.0 °F 67% 30.07 in 10.0 mi NW 3.5 mph - N/A   Clear
8:54 PM 54.0 °F 45.0 °F 72% 30.09 in 10.0 mi West 3.5 mph - N/A   Clear
9:54 PM 53.1 °F 45.0 °F 74% 30.11 in 10.0 mi WNW 6.9 mph - N/A   Clear
10:54 PM 52.0 °F 45.0 °F 77% 30.12 in 10.0 mi WNW 3.5 mph - N/A   Clear
11:54 PM 48.9 °F 46.0 °F 90% 30.14 in 10.0 mi Calm Calm - N/A   Clear